Waarnemingen

Advertentie
Mijn weer
P11-B, Nederland (6203): temperatuur & dauwpunt: 22.05.2017 06:00:00 - 28.05.2017 06:00:00 (CEST)P11-B, Nederland (6203): windsnelheid & windstoten: 22.05.2017 06:00:00 - 28.05.2017 06:00:00 (CEST)P11-B, Nederland (6203): windrichting: 22.05.2017 06:00:00 - 28.05.2017 06:00:00 (CEST)P11-B, Nederland (6203): luchtdruk: 22.05.2017 06:00:00 - 28.05.2017 06:00:00 (CEST)P11-B, Nederland (6203): zicht: 22.05.2017 06:00:00 - 28.05.2017 06:00:00 (CEST)
Datum & Tijd tt [°C] td [°C] ff [km/u] ff [kn] fx [km/u] fx [kn] dd ppp [hPa] vv [km]
28.05.2017 06:00:00 14,3 11,5 34 18 32 18 WZW 1017,3 10
28.05.2017 05:00:00 14,8 12,0 29 16 32 18 WZW 1017,3 10
28.05.2017 04:00:00 14,5 11,3 29 16 32 18 WZW 1017,2 10
28.05.2017 03:00:00 14,5 11,5 35 19 32 18 ZW 1017,1 10
28.05.2017 02:00:00 15,2 12,0 37 20 36 19 ZW 1017,2 10
28.05.2017 01:00:00 15,1 12,0 39 21 40 21 ZW 1016,8 10
28.05.2017 00:00:00 15,2 12,5 46 25 43 23 ZW 1016,4 10
27.05.2017 23:00:00 15,4 12,7 44 24 43 23 ZW 1016,2 10
27.05.2017 22:00:00 14,8 12,2 44 24 43 23 ZW 1015,9 10
27.05.2017 21:00:00 15,7 12,1 46 25 47 25 ZW 1015,2 10
27.05.2017 20:00:00 15,6 12,2 46 25 47 25 ZW 1014,9 10
27.05.2017 19:00:00 15,8 13,1 39 21 40 21 ZW 1014,8 10
27.05.2017 18:00:00 15,9 13,1 35 19 40 21 ZZW 1014,9 10
27.05.2017 17:00:00 16,5 12,8 41 22 40 21 ZW 1014,9 10
27.05.2017 16:00:00 18,2 12,8 15 8 22 12 ZZW 1014,9 10
27.05.2017 15:00:00 18,7 13,5 15 8 25 14 ZZW 1014,8 10
27.05.2017 14:00:00 17,1 12,7 29 16 32 18 Z 1015,3 10
27.05.2017 13:00:00 18,3 13,2 39 21 40 21 ZO 1015,2 10
27.05.2017 12:00:00 17,7 12,9 42 23 40 21 OZO 1014,5 10
27.05.2017 11:00:00 17,3 12,7 41 22 40 21 OZO 1014,8 10
27.05.2017 10:00:00 17,0 12,9 42 23 40 21 OZO 1014,9 10
27.05.2017 09:00:00 16,2 12,4 42 23 40 21 O 1015,4 10
27.05.2017 08:00:00 15,9 12,1 42 23 40 21 O 1015,6 10
27.05.2017 07:00:00 15,7 11,9 41 22 40 21 O 1016,0 10
27.05.2017 06:00:00 16,3 11,8 42 23 40 21 OZO 1015,9 10
27.05.2017 05:00:00 16,8 12,0 42 23 40 21 OZO 1016,2 10
27.05.2017 04:00:00 16,8 11,8 46 25 43 23 O 1016,4 10
27.05.2017 03:00:00 17,2 11,7 48 26 43 23 O 1016,1 10
27.05.2017 02:00:00 17,5 11,7 50 27 47 25 O 1016,0 10
27.05.2017 01:00:00 18,5 12,6 46 25 43 23 O 1016,9 10
27.05.2017 00:00:00 18,1 12,2 41 22 40 21 O 1017,1 10
26.05.2017 23:00:00 18,7 12,2 42 23 40 21 O 1017,1 10
26.05.2017 22:00:00 18,1 13,3 35 19 36 19 ONO 1017,7 10
26.05.2017 21:00:00 16,4 13,0 35 19 36 19 NO 1017,5 10
26.05.2017 20:00:00 16,2 12,8 34 18 32 18 NO 1017,9 10
26.05.2017 19:00:00 15,6 12,0 34 18 32 18 NO 1018,4 10
26.05.2017 18:00:00 17,0 13,9 35 19 32 18 NO 1018,9 10
26.05.2017 17:00:00 14,8 12,3 34 18 32 18 NNO 1019,6 10
26.05.2017 16:00:00 14,8 12,1 35 19 32 18 NNO 1020,3 10
26.05.2017 15:00:00 16,1 12,6 31 17 32 18 NO 1021,0 10
26.05.2017 14:00:00 15,5 11,8 28 15 29 16 NO 1021,5 10
26.05.2017 13:00:00 15,8 12,4 28 15 25 14 ONO 1022,1 10
26.05.2017 12:00:00 15,1 11,9 29 16 25 14 ONO 1022,5 10
26.05.2017 11:00:00 14,4 11,4 29 16 29 16 O 1022,8 10
26.05.2017 10:00:00 14,1 11,3 29 16 29 16 O 1023,0 10
26.05.2017 09:00:00 13,9 11,3 29 16 29 16 O 1023,1 10
26.05.2017 08:00:00 14,0 11,6 31 17 32 18 O 1022,9 10
26.05.2017 07:00:00 14,1 11,9 31 17 32 18 O 1022,8 10
26.05.2017 06:00:00 14,1 11,9 31 17 32 18 O 1022,9 10
26.05.2017 05:00:00 14,5 12,1 31 17 32 18 O 1022,8 10
26.05.2017 04:00:00 14,3 11,9 35 19 36 19 ONO 1022,8 10
26.05.2017 03:00:00 14,3 11,9 35 19 32 18 ONO 1022,8 10
26.05.2017 02:00:00 14,4 11,9 39 21 36 19 ONO 1023,1 10
26.05.2017 01:00:00 14,3 11,4 37 20 36 19 ONO 1023,3 10
26.05.2017 00:00:00 14,3 11,0 37 20 32 18 NO 1023,4 10
25.05.2017 23:00:00 14,3 11,1 34 18 32 18 NO 1023,5 10
25.05.2017 22:00:00 14,1 10,7 31 17 29 16 NO 1023,7 10
25.05.2017 21:00:00 13,8 10,7 29 16 29 16 NO 1023,6 10
25.05.2017 20:00:00 13,6 10,6 26 14 25 14 NO 1023,9 10
25.05.2017 19:00:00 13,3 10,4 21 11 18 10 NNO 1024,3 10
25.05.2017 18:00:00 13,4 10,5 15 8 18 10 N 1024,7 10
25.05.2017 17:00:00 13,3 10,4 15 8 14 8 NNO 1025,2 10
25.05.2017 16:00:00 13,7 11,0 15 8 14 8 NO 1025,7 10
25.05.2017 15:00:00 13,6 11,0 8 4 29 16 - 1026,0 10
25.05.2017 14:00:00 13,4 10,7 5 3 7 4 O 1026,1 10
25.05.2017 13:00:00 13,3 10,9 4 2 4 2 O 1026,3 10
25.05.2017 12:00:00 13,2 11,9 5 3 22 12 O 1026,4 10
25.05.2017 11:00:00 12,6 11,4 9 5 11 6 ONO 1026,4 10
25.05.2017 10:00:00 12,7 11,6 9 5 11 6 NNO 1026,5 10
25.05.2017 09:00:00 12,8 11,8 5 3 11 6 NNO 1026,2 10
25.05.2017 08:00:00 12,4 11,3 9 5 11 6 N 1025,9 10
25.05.2017 07:00:00 12,3 11,3 8 4 7 4 NNW 1025,6 10
25.05.2017 06:00:00 12,2 11,3 8 4 11 6 NNW 1025,4 5
25.05.2017 05:00:00 12,3 11,4 8 4 11 6 NW 1025,4 5
25.05.2017 04:00:00 12,4 11,6 8 4 7 4 NW 1025,6 6
25.05.2017 03:00:00 12,3 11,2 5 3 7 4 WNW 1025,6 6
25.05.2017 02:00:00 12,5 11,4 8 4 7 4 WNW 1025,8 8
25.05.2017 01:00:00 12,6 11,6 5 3 7 4 WNW 1025,9 7
25.05.2017 00:00:00 12,5 11,6 9 5 11 6 N 1026,0 10
24.05.2017 23:00:00 12,7 11,2 9 5 14 8 N 1025,9 10
24.05.2017 22:00:00 12,9 11,3 9 5 14 8 NNW 1025,7 9
24.05.2017 21:00:00 13,5 11,8 13 7 14 8 NNW 1025,7 8
24.05.2017 20:00:00 13,5 11,6 15 8 22 12 NNW 1025,7 8
24.05.2017 19:00:00 13,4 11,3 22 12 22 12 NNW 1025,8 9
24.05.2017 18:00:00 14,1 11,7 21 11 22 12 NW 1025,6 10
24.05.2017 17:00:00 14,0 11,8 18 10 22 12 NW 1025,7 10
24.05.2017 16:00:00 13,5 11,1 21 11 25 14 NW 1025,7 10
24.05.2017 15:00:00 13,8 11,2 21 11 22 12 W 1025,5 10
24.05.2017 14:00:00 13,7 10,9 18 10 22 12 W 1025,3 10
24.05.2017 13:00:00 13,6 10,5 18 10 22 12 W 1025,2 10
24.05.2017 12:00:00 13,9 10,5 21 11 22 12 W 1025,1 10
24.05.2017 11:00:00 13,7 10,1 18 10 18 10 W 1024,9 10
24.05.2017 10:00:00 14,0 10,1 18 10 22 12 WNW 1024,5 10
24.05.2017 09:00:00 13,8 9,6 18 10 25 14 WNW 1024,2 10
24.05.2017 08:00:00 13,5 9,6 24 13 25 14 NW 1023,9 10
24.05.2017 07:00:00 13,7 10,5 18 10 25 14 WNW 1023,2 10
24.05.2017 06:00:00 13,9 12,2 22 12 29 16 W 1022,5 10
24.05.2017 05:00:00 13,7 12,2 29 16 32 18 W 1022,5 10
24.05.2017 04:00:00 13,3 11,7 28 15 29 16 WZW 1022,6 10
24.05.2017 03:00:00 12,8 11,2 21 11 22 12 ZW 1022,6 10
24.05.2017 02:00:00 12,7 11,1 18 10 18 10 ZZW 1022,8 10
24.05.2017 01:00:00 13,2 11,2 16 9 18 10 ZZW 1023,0 10
24.05.2017 00:00:00 13,0 11,1 22 12 22 12 Z 1023,0 10
23.05.2017 23:00:00 12,7 10,5 18 10 18 10 ZO 1023,2 10
23.05.2017 22:00:00 12,8 10,3 16 9 - - ZZO 1022,8 10
23.05.2017 21:00:00 12,8 10,4 16 9 14 8 ZZO 1022,6 10
23.05.2017 20:00:00 12,8 10,4 9 5 11 6 ZO 1022,4 10
23.05.2017 19:00:00 12,6 10,8 2 1 7 4 - 1022,5 10
23.05.2017 18:00:00 12,6 10,2 9 5 11 6 WZW 1022,4 10
23.05.2017 17:00:00 13,5 10,6 9 5 11 6 WNW 1022,4 10
23.05.2017 16:00:00 13,5 10,5 11 6 18 10 W 1022,0 10
23.05.2017 15:00:00 13,6 10,7 13 7 22 12 - 1021,7 10
23.05.2017 14:00:00 13,4 10,7 15 8 22 12 W 1021,1 10
23.05.2017 13:00:00 13,2 10,3 16 9 22 12 W 1020,5 10
23.05.2017 12:00:00 13,1 10,1 18 10 29 16 WNW 1019,8 10
23.05.2017 11:00:00 13,4 10,6 22 12 32 18 WNW 1019,0 10
23.05.2017 10:00:00 13,1 10,4 28 15 32 18 WNW 1018,0 10
23.05.2017 09:00:00 13,0 10,1 35 19 40 21 NW 1017,0 10
23.05.2017 08:00:00 13,3 10,2 24 13 29 16 WNW 1016,3 10
23.05.2017 07:00:00 13,6 10,5 28 15 40 21 W 1015,4 10
23.05.2017 06:00:00 13,8 9,9 37 20 40 21 WZW 1014,8 10
23.05.2017 05:00:00 14,3 9,5 37 20 32 18 ZW 1014,2 10
23.05.2017 04:00:00 15,7 8,3 29 16 29 16 ZW 1014,2 10
23.05.2017 03:00:00 17,7 7,7 18 10 18 10 ZZW 1014,4 10
23.05.2017 02:00:00 16,4 10,7 18 10 18 10 ZZO 1014,5 10
23.05.2017 01:00:00 15,6 10,6 21 11 22 12 OZO 1015,0 10
23.05.2017 00:00:00 16,0 9,5 21 11 25 14 OZO 1015,0 10
22.05.2017 23:00:00 16,4 8,6 24 13 22 12 O 1015,0 10
22.05.2017 22:00:00 16,7 7,7 22 12 25 14 ONO 1015,5 10
22.05.2017 21:00:00 17,2 7,3 29 16 25 14 ONO 1015,3 10
22.05.2017 20:00:00 17,0 7,9 26 14 25 14 ONO 1015,4 10
22.05.2017 19:00:00 16,4 8,9 21 11 22 12 NO 1015,8 10
22.05.2017 18:00:00 16,9 9,0 16 9 18 10 NO 1016,4 10
22.05.2017 17:00:00 17,5 9,4 11 6 11 6 ONO 1016,9 10
22.05.2017 16:00:00 17,1 9,3 13 7 25 14 ONO 1017,3 10
22.05.2017 15:00:00 16,7 10,2 11 6 14 8 O 1018,1 10
22.05.2017 14:00:00 15,2 10,2 15 8 18 10 O 1018,3 10
22.05.2017 13:00:00 14,3 11,0 21 11 18 10 O 1018,6 10
22.05.2017 12:00:00 13,5 10,6 21 11 18 10 O 1019,1 10
22.05.2017 11:00:00 13,1 10,4 22 12 22 12 O 1019,4 10
22.05.2017 10:00:00 13,0 10,3 24 13 29 16 O 1019,6 10
22.05.2017 09:00:00 13,1 10,7 26 14 29 16 O 1019,8 10
22.05.2017 08:00:00 12,9 10,6 28 15 29 16 O 1020,0 10
22.05.2017 07:00:00 12,9 10,6 29 16 29 16 O 1020,0 10
22.05.2017 06:00:00 13,1 10,7 29 16 29 16 O 1020,4 10

tt = temperatuur
td = dauwpunt
ff = windsnelheid
fx = windstoten
dd = windrichting
ppp = luchtdruk
vv = zicht

Weerstations in de omgeving